Regional Weather Roundup
Issued by NWS

Home | Current Version | Previous Version | Graphics & Text | Print | Product List | Glossary On
Versions: 1 2 3 4 5 6 7 8 9 10 11 12 13 14 15 16 17 18 19 20 21 22 23 24 25 26 27 28 29 30 31 32 33 34 35 36 37 38 39 40 41 42 43 44 45 46 47 48 49 50
000
ASUS43 KIND 161200
RWRIN

WEATHER ROUNDUP FOR INDIANA
NATIONAL WEATHER SERVICE INDIANAPOLIS IN
800 AM EDT WED AUG 16 2017

NOTE: "FAIR" INDICATES FEW OR NO CLOUDS BELOW 12,000 FEET WITH NO
SIGNIFICANT WEATHER AND/OR OBSTRUCTIONS TO VISIBILITY.

* - STATION DOES NOT REPORT WEATHER SUCH AS PRECIPITATION OR FOG.

+ - STATION NOT QUALITY CONTROLLED BY THE NATIONAL WEATHER SERVICE.
    USE DATA WITH CAUTION...ESPECIALLY DEWPOINT AND RELATIVE
    HUMIDITY OBSERVATIONS.

INZ001>003-010>013-019-020-161300-
NORTHWEST INDIANA

CITY           SKY/WX    TMP DP  RH WIND       PRES   REMARKS
GARY /AIRPORT/ MOSUNNY   64  63  94 CALM      30.02R
MICHIGAN CITY+ MOSUNNY   59  59 100 CALM      30.03R
MONTICELLO +   SUNNY     67  65  95 E3        30.00S
6HR MIN TEMP:  64; 6HR MAX TEMP:  69;

RENSSELAER +   SUNNY     64  61  88 CALM      30.01R FOG

$$

LMZ046-743>745-161300-
SOUTHERN LAKE MICHIGAN

STATION/POSITION TIME  TEMP    WIND        PRES    WAVE
                       AIR SEA DIR/SP/G            HT
                 (UTC) (F)     (DEG/KT/KT) (MB)    (FT)
BURNS HARBOR     1140   69      80/  2/  4 1016.6R
MICHIGAN CITY    1130   66      70/  3/  5   N/A
5NW MICH CITY    1150   70 74  100/  6/  8   N/A     2

$$

INZ004-005-014>016-021>024-161300-
NORTH CENTRAL INDIANA

CITY           SKY/WX    TMP DP  RH WIND       PRES   REMARKS
ELKHART        MOSUNNY   64  63  94 CALM      30.03R
GOSHEN         PTSUNNY   65  61  87 CALM      30.04R FOG
6HR MIN TEMP:  59; 6HR MAX TEMP:  65;

PERU/GRISSOM   SUNNY     67  67 100 CALM      30.01R
6HR MIN TEMP:  66; 6HR MAX TEMP:  70;

SOUTH BEND     MOSUNNY   65  65 100 E3        30.03R
6HR MIN TEMP:  60; 6HR MAX TEMP:  65;

WARSAW +       MOSUNNY   63  63 100 CALM      30.04R FOG

$$

INZ006>009-017-018-025>027-161300-
NORTHEAST INDIANA

CITY           SKY/WX    TMP DP  RH WIND       PRES   REMARKS
FORT WAYNE     PTSUNNY   66  64  93 NE3       30.04R FOG
6HR MIN TEMP:  64; 6HR MAX TEMP:  68;

KENDALLVILLE + SUNNY     65  65  98 CALM      30.05R FOG

$$

INZ028-029-035-036-043>045-051>053-161300-
WEST CENTRAL INDIANA

CITY           SKY/WX    TMP DP  RH WIND       PRES   REMARKS
LAFAYETTE      SUNNY     68  67  96 CALM      30.00R
6HR MIN TEMP:  64; 6HR MAX TEMP:  70;

TERRE HAUTE    CLEAR     67  66  97 CALM      30.00R FOG
6HR MIN TEMP:  64; 6HR MAX TEMP:  68;


$$

INZ030>032-037>040-046>048-054>057-064-065-161300-
CENTRAL INDIANA

CITY           SKY/WX    TMP DP  RH WIND       PRES   REMARKS
COLUMBUS       SUNNY     64  63  94 CALM      30.02R FOG
GREENWOOD *+   SUNNY     66  65  97 CALM      30.03R
6HR MIN TEMP:  64; 6HR MAX TEMP:  68;

INDIANAPOLIS   MOSUNNY   71  68  90 CALM      30.01R
6HR MIN TEMP:  69; 6HR MAX TEMP:  74;

-EAGLE CREEK   SUNNY     72  68  87 CALM      30.01R
6HR MIN TEMP:  67; 6HR MAX TEMP:  73;

KOKOMO +       SUNNY     65  65 100 CALM      30.03R FOG
6HR MIN TEMP:  63; 6HR MAX TEMP:  69;

MT COMFORT *+    N/A     66  66 100 CALM      30.02S
SHELBYVILLE    MOSUNNY   67  64  90 CALM      30.02R FOG
6HR MIN TEMP:  64; 6HR MAX TEMP:  67;


$$

INZ033-034-041-042-049-050-058-059-161300-
EAST CENTRAL INDIANA

CITY           SKY/WX    TMP DP  RH WIND       PRES   REMARKS
MUNCIE         SUNNY     69  66  90 CALM      30.03R FOG
6HR MIN TEMP:  65; 6HR MAX TEMP:  69;

RICHMOND +     SUNNY     64  63  94 SE3       30.06R FOG

$$

INZ060-061-067>069-081>083-085>088-161300-
SOUTHWEST INDIANA

CITY           SKY/WX    TMP DP  RH WIND       PRES   REMARKS
EVANSVILLE     CLOUDY    72  70  93 E5        30.00R FOG
6HR MIN TEMP:  69; 6HR MAX TEMP:  73;

HUNTINGBURG *+ MOCLDY    70  69  97 CALM      30.01S FOG
6HR MIN TEMP:  68; 6HR MAX TEMP:  71; 6HR PCP: TRACE;


$$

INZ062-063-066-070>080-084-089>092-161300-
SOUTH CENTRAL AND SOUTHEAST INDIANA

CITY           SKY/WX    TMP DP  RH WIND       PRES   REMARKS
BLOOMINGTON    MOSUNNY   68  66  93 CALM      30.02S FOG
6HR MIN TEMP:  64; 6HR MAX TEMP:  68;

MADISON *+     SUNNY     70  68  94 CALM      30.05S
SEYMOUR +      MOSUNNY   68  68 100 CALM      30.02R FOG

$$





USA.gov is the U.S. government's official web portal to all federal, state and local government web resources and services.